Weather Roundup
Issued by NWS Springfield, MO

Home | Current Version | Previous Version | Text Only | Print | Product List | Glossary On
Versions: 1 2 3 4 5 6 7 8 9 10 11 12 13 14 15 16 17 18 19 20 21 22 23 24 25 26 27 28 29 30 31 32 33 34 35 36 37 38 39 40 41 42 43 44 45 46 47 48 49 50
000
NZUS99 KSGF 171107
HRRSGF

HOURLY WEATHER
NATIONAL WEATHER SERVICE SPRINGFIELD MO
500 AM CST FRI NOV 17 2017

......SGF CWA......

CITY           SKY/WX    TMP DP  RH WIND       PRES   REMARKS
SPRINGFIELD    CLOUDY    51  44  77 SE20      29.95F
JOPLIN         CLOUDY    60  56  86 S17G25    29.89F
WEST PLAINS    CLOUDY    44  37  76 SE6       30.07F
ROLLA          CLOUDY    45  37  73 S15G23    30.00F
OSAGE BEACH    CLOUDY    49  41  74 SE9       29.97F
BRANSON        CLOUDY    50  45  81 SE12      30.01R

......SURROUNDING SGF CWA......

CITY           SKY/WX    TMP DP  RH WIND       PRES   REMARKS
CHANUTE        CLOUDY    58  53  84 S15G24    29.84F
PARSONS          N/A    N/A N/A N/A MISG      29.86F
COFFEYVILLE    CLOUDY    60  55  83 S12G20    29.86F
EMPORIA        CLOUDY    54  53  97 S15       29.76F FOG
GROVE OK       MOCLDY    59  54  82 S13G18      N/A
ROGERS AR      CLOUDY    56  52  86 SE10      29.97S
SILOAM SPRINGS CLOUDY    58  54  86 S10G21    29.95F
HARRISON AR    CLOUDY    54  49  83 SE13G22   30.01F
NEAR YELLVILLE CLOUDY    48  42  80 E6        30.05F

......KANSAS AND MISSOURI......

CITY           SKY/WX    TMP DP  RH WIND       PRES   REMARKS
KANSAS CTY INT CLOUDY    54  47  77 S18       29.80F
DOWNTOWN KC    CLOUDY    57  47  69 S12       29.82F
COLUMBIA       CLOUDY    44  36  73 SE14      29.96F
SEDALIA        CLOUDY    51  43  74 SE13      29.91F
ST JOSEPH      CLOUDY    52  43  71 S13       29.79F
ST LOUIS       CLOUDY    34  32  92 SE9       30.11R FOG     WCI  27
SPIRIT OF STL  CLOUDY    36  33  89 SE6       30.08S WCI  31
KIRKSVILLE     CLOUDY    40  35  83 SE13      29.93F WCI  32
WICHITA        CLOUDY    59  58  96 S24G30    29.73F
TOPEKA         CLOUDY    57  52  83 SE14      29.77F
OLATHE         CLOUDY    53  48  83 S14       29.83S

......TENNESSEE......

CITY           SKY/WX    TMP DP  RH WIND       PRES   REMARKS
MEMPHIS        MOCLDY    49  42  77 SE6       30.13R
NASHVILLE      CLOUDY    35  32  88 CALM      30.20R FOG

......ARKANSAS.......

CITY           SKY/WX    TMP DP  RH WIND       PRES   REMARKS
FAYETTEVILLE   CLOUDY    57  55  93 S17G24    29.96F
FT SMITH       CLOUDY    57  51  80 E9        29.98F
LITTLE ROCK    CLOUDY    52  49  89 SE7       30.09S

......OKLAHOMA.......

CITY           SKY/WX    TMP DP  RH WIND       PRES   REMARKS
TULSA          CLOUDY    59  54  83 SE14      29.88F
PONCA CITY     CLOUDY    59  56  89 S14G24    29.79F FOG
MCALESTER      CLOUDY    64  59  83 S8        29.91F
OKLAHOMA CITY  CLOUDY    60  60 100 S15       29.81F FOG

......IOWA............

CITY           SKY/WX    TMP DP  RH WIND       PRES   REMARKS
DES MOINES     CLOUDY    43  32  65 SE14      29.84S
QUAD CITIES    CLOUDY    34  29  82 SE9       30.04F WCI  27

......ILLINOIS........

CITY           SKY/WX    TMP DP  RH WIND       PRES   REMARKS
QUINCY         CLOUDY    36  31  82 SE14      29.99F WCI  27
CHICAGO        CLOUDY    36  30  79 S13       30.14F WCI  27



USA.gov is the U.S. government's official web portal to all federal, state and local government web resources and services.